Wahoo, NE

6:17 AM CDT on April 26, 2017 (GMT -0500)
Wahoo Municipal

Weather History for KAHQ - March, 2012

Change the Weather History Date:

Friday, March 2, 2012

  Actual Average Record
Temperature  
Mean Temperature 39 °F -  
Max Temperature 46 °F 48 °F 78 °F (1992)
Min Temperature 32 °F 24 °F -5 °F (2014)
Degree Days  
Heating Degree Days 26    
Moisture  
Dew Point 27 °F    
Average Humidity 70    
Maximum Humidity 92    
Minimum Humidity 43    
Precipitation  
Precipitation 0.00 in - - ()
Sea Level Pressure  
Sea Level Pressure 29.77 in    
Wind  
Wind Speed 14 mph (NW)    
Max Wind Speed 30 mph    
Max Gust Speed 37 mph    
Visibility 10 miles    
Events      
Averages and records for this station are not official NWS values.
T = Trace of Precipitation, MM = Missing Value Source: NWS Daily Summary

Daily Weather History Graph

Daily Weather History Graph

Search for Another Location

Airport or City:

Trip Planner

Search our weather history database for the weather conditions in past years. The results will help you decide how hot, cold, wet, or windy it might be!

Date:

Astronomy

Mar. 02, 2012 Rise Set
Actual Time 6:58 AM CST 6:18 PM CST
Civil Twilight 6:30 AM CST 6:46 PM CST
Nautical Twilight 5:58 AM CST 7:18 PM CST
Astronomical Twilight 5:26 AM CST 7:50 PM CST
Moon 12:29 PM CST (3/2) 2:52 AM CST (3/2)
Length of Visible Light 12h 15m
Length of Day
11h 20m
Waxing Gibbous, 66% of the Moon is Illuminated
Mar 2
Waxing Gibbous
Mar 8
Full
Mar 14
Last Quarter
Mar 22
New
Mar 30
First Quarter

Hourly Weather History & Observations

Time (CST) Temp. Windchill Dew Point Humidity Pressure Visibility Wind Dir Wind Speed Gust Speed Precip Events Conditions
12:15 AM 33.1 °F 24.4 °F 30.2 °F 89% 29.75 in 7.0 mi North 11.5 mph - N/A   Scattered Clouds
12:35 AM 32.9 °F 25.3 °F 30.7 °F 92% 29.75 in 7.0 mi NNW 9.2 mph - N/A   Mostly Cloudy
12:55 AM 32.9 °F 25.3 °F 30.6 °F 91% 29.76 in 10.0 mi NNW 9.2 mph - N/A   Overcast
1:15 AM 32.9 °F 23.2 °F 30.2 °F 90% 29.73 in 10.0 mi North 13.8 mph - N/A   Overcast
1:35 AM 33.1 °F 23.0 °F 30.0 °F 89% 29.74 in 10.0 mi NNW 15.0 mph - N/A   Overcast
1:55 AM 33.1 °F 23.9 °F 29.8 °F 88% 29.73 in 10.0 mi North 12.7 mph - N/A   Overcast
2:15 AM 33.1 °F 22.2 °F 29.7 °F 87% 29.72 in 10.0 mi North 17.3 mph - N/A   Overcast
2:35 AM 33.1 °F 23.0 °F 29.7 °F 87% 29.70 in 10.0 mi North 15.0 mph - N/A   Overcast
2:55 AM 32.9 °F 22.8 °F 29.5 °F 87% 29.70 in 10.0 mi North 15.0 mph - N/A   Overcast
3:15 AM 32.9 °F 22.4 °F 29.5 °F 87% 29.69 in 10.0 mi North 16.1 mph - N/A   Scattered Clouds
3:35 AM 32.9 °F 23.7 °F 29.3 °F 87% 29.68 in 10.0 mi North 12.7 mph - N/A   Mostly Cloudy
3:55 AM 33.1 °F 23.4 °F 29.3 °F 86% 29.68 in 10.0 mi North 13.8 mph - N/A   Overcast
4:15 AM 33.1 °F 23.9 °F 29.1 °F 85% 29.68 in 10.0 mi North 12.7 mph - N/A   Overcast
4:35 AM 32.9 °F 23.7 °F 29.1 °F 86% 29.70 in 10.0 mi NNW 12.7 mph - N/A   Overcast
4:55 AM 32.5 °F 23.7 °F 29.3 °F 88% 29.70 in 10.0 mi NNW 11.5 mph - N/A   Overcast
5:15 AM 32.2 °F 22.3 °F 29.3 °F 89% 29.70 in 10.0 mi NNW 13.8 mph 18.4 mph N/A   Overcast
5:35 AM 32.2 °F 22.7 °F 29.1 °F 88% 29.69 in 10.0 mi NNW 12.7 mph - N/A   Scattered Clouds
5:55 AM 32.2 °F 23.2 °F 28.9 °F 88% 29.70 in 10.0 mi NNW 11.5 mph - N/A   Mostly Cloudy
6:15 AM 32.0 °F 23.6 °F 28.8 °F 88% 29.70 in 10.0 mi NNW 10.4 mph - N/A   Scattered Clouds
6:35 AM 32.0 °F 22.1 °F 28.4 °F 87% 29.71 in 10.0 mi NNW 13.8 mph - N/A   Clear
6:55 AM 32.0 °F 22.5 °F 28.4 °F 87% 29.71 in 10.0 mi NNW 12.7 mph - N/A   Clear
7:15 AM 32.0 °F 23.6 °F 28.2 °F 86% 29.71 in 10.0 mi NNW 10.4 mph - N/A   Clear
7:35 AM 32.0 °F 23.6 °F 28.4 °F 87% 29.73 in 10.0 mi NW 10.4 mph - N/A   Clear
7:55 AM 32.4 °F 25.3 °F 28.4 °F 85% 29.74 in 10.0 mi NNW 8.1 mph - N/A   Clear
8:15 AM 32.9 °F 24.1 °F 28.4 °F 84% 29.74 in 10.0 mi NW 11.5 mph - N/A   Clear
8:35 AM 33.1 °F - 28.6 °F 84% 29.74 in 10.0 mi North - - N/A   Clear
8:55 AM 33.3 °F 24.6 °F 28.6 °F 83% 29.75 in 10.0 mi NW 11.5 mph - N/A   Clear
9:15 AM 34.0 °F 26.0 °F 28.6 °F 81% 29.77 in 10.0 mi NW 10.4 mph - N/A   Clear
9:35 AM 34.7 °F 26.4 °F 28.6 °F 78% 29.77 in 10.0 mi NW 11.5 mph - N/A   Clear
10:15 AM 37.4 °F 29.8 °F 28.8 °F 71% 29.78 in 10.0 mi NW 11.5 mph - N/A   Clear
10:55 AM 43.3 °F 36.1 °F 27.5 °F 54% 29.78 in 10.0 mi NW 15.0 mph 21.9 mph N/A   Clear
11:15 AM 43.7 °F 36.3 °F 26.4 °F 51% 29.78 in 10.0 mi NW 16.1 mph - N/A   Clear
11:35 AM 44.4 °F 36.4 °F 27.5 °F 52% 29.79 in 10.0 mi NNW 19.6 mph 25.3 mph N/A   Clear
12:15 PM 44.6 °F 36.6 °F 26.1 °F 48% 29.80 in 10.0 mi North 19.6 mph 25.3 mph N/A   Clear
12:35 PM 45.5 °F 37.3 °F 26.4 °F 47% 29.80 in 10.0 mi NNW 21.9 mph 27.6 mph N/A   Clear
12:55 PM 45.3 °F 37.6 °F 26.2 °F 47% 29.80 in 10.0 mi NNW 19.6 mph 26.5 mph N/A   Clear
1:35 PM 46.6 °F - 26.4 °F 45% 29.79 in 10.0 mi NW 19.6 mph 27.6 mph N/A   Clear
1:55 PM 46.6 °F - 25.3 °F 43% 29.79 in 10.0 mi NW 21.9 mph 27.6 mph N/A   Clear
2:35 PM 46.2 °F 37.7 °F 26.6 °F 46% 29.78 in 10.0 mi NW 25.3 mph 33.4 mph N/A   Clear
2:55 PM 45.9 °F 37.2 °F 25.5 °F 45% 29.79 in 10.0 mi WNW 25.3 mph 33.4 mph N/A   Clear
3:15 PM 46.4 °F 38.7 °F 27.0 °F 47% 29.79 in 10.0 mi WNW 20.7 mph 27.6 mph N/A   Scattered Clouds
3:55 PM 44.6 °F 34.7 °F 23.0 °F 43% 29.81 in 10.0 mi WNW 29.9 mph 34.5 mph N/A   Clear
4:15 PM 43.9 °F 34.7 °F 23.2 °F 44% 29.82 in 10.0 mi WNW 24.2 mph 31.1 mph N/A   Clear
4:35 PM 43.0 °F 32.7 °F 21.7 °F 43% 29.83 in 10.0 mi WNW 28.8 mph 35.7 mph N/A   Clear
4:55 PM 41.9 °F 31.5 °F 21.2 °F 44% 29.84 in 10.0 mi WNW 27.6 mph 36.8 mph N/A   Clear
5:15 PM 41.2 °F 30.3 °F 21.4 °F 45% 29.85 in 10.0 mi NW 28.8 mph 34.5 mph N/A   Clear
5:35 PM 40.1 °F 30.7 °F 21.6 °F 48% 29.85 in 10.0 mi NW 19.6 mph 32.2 mph N/A   Clear
5:55 PM 38.8 °F 29.4 °F 21.7 °F 50% 29.85 in 10.0 mi NW 18.4 mph - N/A   Clear
6:15 PM 37.8 °F 27.1 °F 21.2 °F 51% 29.85 in 10.0 mi NW 21.9 mph 28.8 mph N/A   Clear
6:35 PM 36.0 °F 26.7 °F 22.8 °F 59% 29.87 in 10.0 mi NW 15.0 mph - N/A   Clear
6:55 PM 35.1 °F 25.2 °F 22.8 °F 61% 29.87 in 10.0 mi NW 16.1 mph - N/A   Clear
7:15 PM 34.0 °F 23.8 °F 22.8 °F 64% 29.88 in 10.0 mi NW 16.1 mph 21.9 mph N/A   Clear
7:35 PM 33.3 °F 23.7 °F 22.8 °F 66% 29.90 in 10.0 mi NW 13.8 mph - N/A   Clear
7:55 PM 32.9 °F 23.2 °F 22.1 °F 65% 29.90 in 10.0 mi NW 13.8 mph - N/A   Clear
8:15 PM 32.0 °F 23.6 °F 22.6 °F 68% 29.91 in 10.0 mi NW 10.4 mph - N/A   Clear
8:35 PM 32.0 °F 23.0 °F 22.6 °F 68% 29.91 in 10.0 mi WNW 11.5 mph - N/A   Clear
8:55 PM 32.0 °F 23.0 °F 22.6 °F 68% 29.91 in 10.0 mi WNW 11.5 mph - N/A   Clear
9:15 PM 32.0 °F 22.5 °F 22.8 °F 69% 29.92 in 10.0 mi WNW 12.7 mph - N/A   Clear
9:35 PM 31.5 °F 22.9 °F 22.8 °F 70% 29.92 in 10.0 mi WNW 10.4 mph - N/A   Clear
9:55 PM 31.5 °F 21.8 °F 23.0 °F 71% 29.92 in 10.0 mi WNW 12.7 mph - N/A   Clear
10:15 PM 31.1 °F 21.9 °F 23.2 °F 72% 29.92 in 10.0 mi WNW 11.5 mph - N/A   Clear
10:35 PM 31.6 °F 22.1 °F 22.6 °F 69% 29.92 in 10.0 mi WNW 12.7 mph - N/A   Scattered Clouds
10:55 PM 31.6 °F 23.1 °F 23.7 °F 73% 29.92 in 10.0 mi West 10.4 mph - N/A   Overcast
11:15 PM 32.0 °F 23.0 °F 23.7 °F 71% 29.92 in 10.0 mi West 11.5 mph - N/A   Overcast
11:35 PM 32.0 °F 21.2 °F 23.0 °F 69% 29.92 in 10.0 mi WNW 16.1 mph - N/A   Overcast
11:55 PM 31.6 °F 21.2 °F 21.6 °F 66% 29.92 in 10.0 mi NW 15.0 mph - N/A   Mostly Cloudy